Time,TemperatureF,DewpointF,PressureIn,WindDirection,WindDirectionDegrees,WindSpeedMPH,WindSpeedGustMPH,Humidity,HourlyPrecipIn,Conditions,Clouds,dailyrainin,SoftwareType,DateUTC
2013-11-26 00:01:00,29.0,14.0,30.05,East,90,4.0,6.0,52,0.00,,,0.00,Rainwise IP-100,2013-11-26 05:01:00,
2013-11-26 00:06:00,29.0,16.0,30.05,ENE,67,6.0,7.0,55,0.00,,,0.00,Rainwise IP-100,2013-11-26 05:06:00,
2013-11-26 00:11:00,29.0,14.0,30.05,East,90,6.0,10.0,51,0.00,,,0.00,Rainwise IP-100,2013-11-26 05:11:00,
2013-11-26 00:16:00,29.0,14.0,30.05,East,90,6.0,9.0,50,0.00,,,0.00,Rainwise IP-100,2013-11-26 05:16:00,
2013-11-26 00:21:00,29.0,14.0,30.05,East,90,4.0,9.0,50,0.00,,,0.00,Rainwise IP-100,2013-11-26 05:21:00,
2013-11-26 00:26:00,30.0,14.0,30.05,SW,225,4.0,8.0,47,0.00,,,0.00,Rainwise IP-100,2013-11-26 05:26:00,
2013-11-26 00:31:00,30.0,14.0,30.05,West,270,4.0,6.0,49,0.00,,,0.00,Rainwise IP-100,2013-11-26 05:31:00,
2013-11-26 00:36:00,30.0,14.0,30.04,NE,45,2.0,6.0,49,0.00,,,0.00,Rainwise IP-100,2013-11-26 05:36:00,
2013-11-26 00:41:00,30.0,14.0,30.04,East,90,2.0,3.0,49,0.00,,,0.00,Rainwise IP-100,2013-11-26 05:41:00,
2013-11-26 00:46:00,29.0,14.0,30.04,SW,225,4.0,4.0,50,0.00,,,0.00,Rainwise IP-100,2013-11-26 05:46:00,
2013-11-26 00:51:00,29.0,14.0,30.04,SE,135,2.0,5.0,50,0.00,,,0.00,Rainwise IP-100,2013-11-26 05:51:00,
2013-11-26 00:56:00,29.0,14.0,30.05,SE,135,1.0,4.0,49,0.00,,,0.00,Rainwise IP-100,2013-11-26 05:56:00,
2013-11-26 01:01:00,29.0,14.0,30.05,East,90,5.0,6.0,51,0.00,,,0.00,Rainwise IP-100,2013-11-26 06:01:00,
2013-11-26 01:06:00,29.0,14.0,30.05,East,90,2.0,6.0,53,0.00,,,0.00,Rainwise IP-100,2013-11-26 06:06:00,
2013-11-26 01:11:00,29.0,16.0,30.05,East,90,2.0,5.0,59,0.00,,,0.00,Rainwise IP-100,2013-11-26 06:11:00,
2013-11-26 01:16:00,29.0,16.0,30.05,North,360,2.0,4.0,54,0.00,,,0.00,Rainwise IP-100,2013-11-26 06:16:00,
2013-11-26 01:21:00,29.0,16.0,30.05,NE,45,2.0,6.0,55,0.00,,,0.00,Rainwise IP-100,2013-11-26 06:21:00,
2013-11-26 01:26:00,29.0,16.0,30.05,NE,45,0.0,3.0,54,0.00,,,0.00,Rainwise IP-100,2013-11-26 06:26:00,
2013-11-26 01:31:00,29.0,14.0,30.05,North,360,0.0,7.0,52,0.00,,,0.00,Rainwise IP-100,2013-11-26 06:31:00,
2013-11-26 01:36:00,29.0,14.0,30.06,East,90,3.0,5.0,51,0.00,,,0.00,Rainwise IP-100,2013-11-26 06:36:00,
2013-11-26 01:41:00,29.0,14.0,30.06,ESE,112,6.0,6.0,52,0.00,,,0.00,Rainwise IP-100,2013-11-26 06:41:00,
2013-11-26 01:46:00,29.0,14.0,30.06,SE,135,1.0,7.0,50,0.00,,,0.00,Rainwise IP-100,2013-11-26 06:46:00,
2013-11-26 01:51:00,30.0,16.0,30.06,ESE,112,5.0,6.0,50,0.00,,,0.00,Rainwise IP-100,2013-11-26 06:51:00,
2013-11-26 01:56:00,30.0,14.0,30.06,East,90,6.0,7.0,48,0.00,,,0.00,Rainwise IP-100,2013-11-26 06:56:00,
2013-11-26 02:01:00,30.0,14.0,30.06,SE,135,8.0,9.0,49,0.00,,,0.00,Rainwise IP-100,2013-11-26 07:01:00,
2013-11-26 02:06:00,30.0,14.0,30.06,SSE,157,9.0,9.0,48,0.00,,,0.00,Rainwise IP-100,2013-11-26 07:06:00,
2013-11-26 02:11:00,30.0,14.0,30.06,SE,135,6.0,12.0,46,0.00,,,0.00,Rainwise IP-100,2013-11-26 07:11:00,
2013-11-26 02:16:00,30.0,14.0,30.06,SE,135,7.0,9.0,47,0.00,,,0.00,Rainwise IP-100,2013-11-26 07:16:00,
2013-11-26 02:21:00,30.0,14.0,30.06,SE,135,9.0,10.0,46,0.00,,,0.00,Rainwise IP-100,2013-11-26 07:21:00,
2013-11-26 02:26:00,30.0,14.0,30.06,South,180,8.0,11.0,47,0.00,,,0.00,Rainwise IP-100,2013-11-26 07:26:00,
2013-11-26 02:31:00,30.0,14.0,30.06,ESE,112,7.0,15.0,49,0.00,,,0.00,Rainwise IP-100,2013-11-26 07:31:00,
2013-11-26 02:36:00,30.0,14.0,30.06,South,180,4.0,10.0,47,0.00,,,0.00,Rainwise IP-100,2013-11-26 07:36:00,
2013-11-26 02:41:00,30.0,14.0,30.06,SSE,157,7.0,12.0,47,0.00,,,0.00,Rainwise IP-100,2013-11-26 07:41:00,
2013-11-26 02:46:00,31.0,14.0,30.06,SE,135,6.0,9.0,46,0.00,,,0.00,Rainwise IP-100,2013-11-26 07:46:00,
2013-11-26 02:51:00,31.0,14.0,30.06,SE,135,9.0,11.0,47,0.00,,,0.00,Rainwise IP-100,2013-11-26 07:51:00,
2013-11-26 02:56:00,31.0,14.0,30.06,SSE,157,2.0,9.0,46,0.00,,,0.00,Rainwise IP-100,2013-11-26 07:56:00,
2013-11-26 03:01:00,30.0,14.0,30.06,South,180,5.0,9.0,47,0.00,,,0.00,Rainwise IP-100,2013-11-26 08:01:00,
2013-11-26 03:06:00,30.0,14.0,30.06,South,180,1.0,6.0,47,0.00,,,0.00,Rainwise IP-100,2013-11-26 08:06:00,
2013-11-26 03:10:00,30.0,14.0,30.06,SE,135,11.0,11.0,47,0.00,,,0.00,Rainwise IP-100,2013-11-26 08:10:00,
2013-11-26 03:15:00,31.0,14.0,30.06,SSW,202,9.0,13.0,47,0.00,,,0.00,Rainwise IP-100,2013-11-26 08:15:00,
2013-11-26 03:20:00,31.0,14.0,30.06,SSE,157,6.0,10.0,47,0.00,,,0.00,Rainwise IP-100,2013-11-26 08:20:00,
2013-11-26 03:25:00,31.0,14.0,30.06,SE,135,8.0,10.0,48,0.00,,,0.00,Rainwise IP-100,2013-11-26 08:25:00,
2013-11-26 03:30:00,31.0,14.0,30.06,SSE,157,6.0,12.0,49,0.00,,,0.00,Rainwise IP-100,2013-11-26 08:30:00,
2013-11-26 03:35:00,31.0,14.0,30.06,South,180,8.0,12.0,48,0.00,,,0.00,Rainwise IP-100,2013-11-26 08:35:00,
2013-11-26 03:40:00,31.0,14.0,30.06,South,180,6.0,9.0,48,0.00,,,0.00,Rainwise IP-100,2013-11-26 08:40:00,
2013-11-26 03:45:00,31.0,14.0,30.06,South,180,7.0,7.0,49,0.00,,,0.00,Rainwise IP-100,2013-11-26 08:45:00,
2013-11-26 03:50:00,31.0,14.0,30.06,SE,135,2.0,9.0,49,0.00,,,0.00,Rainwise IP-100,2013-11-26 08:50:00,
2013-11-26 03:55:00,31.0,14.0,30.06,SE,135,6.0,12.0,49,0.00,,,0.00,Rainwise IP-100,2013-11-26 08:55:00,
2013-11-26 04:00:00,31.0,14.0,30.06,South,180,7.0,12.0,49,0.00,,,0.00,Rainwise IP-100,2013-11-26 09:00:00,
2013-11-26 04:05:00,31.0,14.0,30.06,South,180,6.0,13.0,47,0.00,,,0.00,Rainwise IP-100,2013-11-26 09:05:00,
2013-11-26 04:10:00,31.0,16.0,30.06,SW,225,3.0,14.0,50,0.00,,,0.00,Rainwise IP-100,2013-11-26 09:10:00,
2013-11-26 04:15:00,31.0,14.0,30.06,South,180,6.0,10.0,49,0.00,,,0.00,Rainwise IP-100,2013-11-26 09:15:00,
2013-11-26 04:20:00,31.0,14.0,30.06,SW,225,9.0,9.0,49,0.00,,,0.00,Rainwise IP-100,2013-11-26 09:20:00,
2013-11-26 04:25:00,31.0,16.0,30.06,South,180,5.0,10.0,50,0.00,,,0.00,Rainwise IP-100,2013-11-26 09:25:00,
2013-11-26 04:30:00,31.0,14.0,30.06,SSW,202,4.0,11.0,49,0.00,,,0.00,Rainwise IP-100,2013-11-26 09:30:00,
2013-11-26 04:35:00,31.0,16.0,30.06,WSW,247,7.0,11.0,51,0.00,,,0.00,Rainwise IP-100,2013-11-26 09:35:00,
2013-11-26 04:40:00,31.0,16.0,30.06,SW,225,5.0,9.0,50,0.00,,,0.00,Rainwise IP-100,2013-11-26 09:40:00,
2013-11-26 04:45:00,31.0,16.0,30.06,SW,225,7.0,7.0,50,0.00,,,0.00,Rainwise IP-100,2013-11-26 09:45:00,
2013-11-26 04:50:00,31.0,16.0,30.06,SW,225,2.0,7.0,50,0.00,,,0.00,Rainwise IP-100,2013-11-26 09:50:00,
2013-11-26 04:55:00,31.0,16.0,30.06,SSW,202,2.0,7.0,50,0.00,,,0.00,Rainwise IP-100,2013-11-26 09:55:00,
2013-11-26 05:00:00,31.0,16.0,30.06,WSW,247,5.0,8.0,51,0.00,,,0.00,Rainwise IP-100,2013-11-26 10:00:00,
2013-11-26 05:05:00,31.0,16.0,30.06,SW,225,6.0,9.0,53,0.00,,,0.00,Rainwise IP-100,2013-11-26 10:05:00,
2013-11-26 05:10:00,31.0,16.0,30.06,SW,225,6.0,9.0,52,0.00,,,0.00,Rainwise IP-100,2013-11-26 10:10:00,
2013-11-26 05:15:00,31.0,16.0,30.06,SW,225,6.0,9.0,52,0.00,,,0.00,Rainwise IP-100,2013-11-26 10:15:00,
2013-11-26 05:20:00,30.0,16.0,30.06,West,270,4.0,9.0,53,0.00,,,0.00,Rainwise IP-100,2013-11-26 10:20:00,
2013-11-26 05:25:00,30.0,16.0,30.07,SSE,157,6.0,10.0,53,0.00,,,0.00,Rainwise IP-100,2013-11-26 10:25:00,
2013-11-26 05:30:00,30.0,16.0,30.07,SSW,202,6.0,9.0,54,0.00,,,0.00,Rainwise IP-100,2013-11-26 10:30:00,
2013-11-26 05:35:00,30.0,16.0,30.08,South,180,7.0,11.0,54,0.00,,,0.00,Rainwise IP-100,2013-11-26 10:35:00,
2013-11-26 05:40:00,30.0,16.0,30.08,South,180,7.0,9.0,55,0.00,,,0.00,Rainwise IP-100,2013-11-26 10:40:00,
2013-11-26 05:45:00,30.0,16.0,30.08,South,180,8.0,10.0,55,0.00,,,0.00,Rainwise IP-100,2013-11-26 10:45:00,
2013-11-26 05:50:00,30.0,18.0,30.08,WSW,247,6.0,9.0,56,0.00,,,0.00,Rainwise IP-100,2013-11-26 10:50:00,
2013-11-26 05:55:00,30.0,18.0,30.08,SW,225,7.0,9.0,56,0.00,,,0.00,Rainwise IP-100,2013-11-26 10:55:00,
2013-11-26 06:00:00,30.0,18.0,30.08,SW,225,3.0,9.0,57,0.00,,,0.00,Rainwise IP-100,2013-11-26 11:00:00,
2013-11-26 06:05:00,30.0,18.0,30.07,SW,225,6.0,10.0,57,0.00,,,0.00,Rainwise IP-100,2013-11-26 11:05:00,
2013-11-26 06:10:00,30.0,18.0,30.07,SSW,202,6.0,9.0,58,0.00,,,0.00,Rainwise IP-100,2013-11-26 11:10:00,
2013-11-26 06:15:00,30.0,18.0,30.07,SSE,157,3.0,10.0,58,0.00,,,0.00,Rainwise IP-100,2013-11-26 11:15:00,
2013-11-26 06:20:00,30.0,18.0,30.07,South,180,3.0,7.0,58,0.00,,,0.00,Rainwise IP-100,2013-11-26 11:20:00,
2013-11-26 06:25:00,30.0,18.0,30.08,South,180,7.0,8.0,59,0.00,,,0.00,Rainwise IP-100,2013-11-26 11:25:00,
2013-11-26 06:30:00,30.0,18.0,30.08,South,180,8.0,10.0,60,0.00,,,0.00,Rainwise IP-100,2013-11-26 11:30:00,
2013-11-26 06:35:00,30.0,18.0,30.08,South,180,9.0,9.0,61,0.00,,,0.00,Rainwise IP-100,2013-11-26 11:35:00,
2013-11-26 06:40:00,29.0,18.0,30.08,South,180,9.0,12.0,61,0.00,,,0.00,Rainwise IP-100,2013-11-26 11:40:00,
2013-11-26 06:45:00,29.0,18.0,30.08,South,180,6.0,13.0,63,0.00,,,0.00,Rainwise IP-100,2013-11-26 11:45:00,
2013-11-26 06:50:00,29.0,18.0,30.08,SE,135,5.0,10.0,64,0.00,,,0.00,Rainwise IP-100,2013-11-26 11:50:00,
2013-11-26 06:55:00,29.0,18.0,30.10,SSE,157,6.0,12.0,65,0.00,,,0.00,Rainwise IP-100,2013-11-26 11:55:00,
2013-11-26 07:00:00,29.0,21.0,30.10,SSW,202,4.0,12.0,66,0.00,,,0.00,Rainwise IP-100,2013-11-26 12:00:00,
2013-11-26 07:05:00,29.0,21.0,30.10,South,180,6.0,11.0,66,0.00,,,0.00,Rainwise IP-100,2013-11-26 12:05:00,
2013-11-26 07:10:00,29.0,21.0,30.10,South,180,9.0,11.0,67,0.00,,,0.00,Rainwise IP-100,2013-11-26 12:10:00,
2013-11-26 07:15:00,29.0,21.0,30.10,SE,135,7.0,10.0,68,0.00,,,0.00,Rainwise IP-100,2013-11-26 12:15:00,
2013-11-26 07:20:00,29.0,21.0,30.10,SSE,157,6.0,10.0,69,0.00,,,0.00,Rainwise IP-100,2013-11-26 12:20:00,
2013-11-26 07:25:00,29.0,21.0,30.11,SSE,157,4.0,9.0,69,0.00,,,0.00,Rainwise IP-100,2013-11-26 12:25:00,
2013-11-26 07:30:00,29.0,21.0,30.11,South,180,1.0,10.0,70,0.00,,,0.00,Rainwise IP-100,2013-11-26 12:30:00,
2013-11-26 07:35:00,29.0,21.0,30.12,South,180,6.0,10.0,70,0.00,,,0.00,Rainwise IP-100,2013-11-26 12:35:00,
2013-11-26 07:40:00,29.0,21.0,30.12,South,180,9.0,10.0,69,0.00,,,0.00,Rainwise IP-100,2013-11-26 12:40:00,
2013-11-26 07:45:00,29.0,21.0,30.13,SSE,157,4.0,10.0,69,0.00,,,0.00,Rainwise IP-100,2013-11-26 12:45:00,
2013-11-26 07:50:00,29.0,21.0,30.13,SE,135,5.0,8.0,70,0.00,,,0.00,Rainwise IP-100,2013-11-26 12:50:00,
2013-11-26 07:55:00,29.0,21.0,30.13,SSW,202,5.0,12.0,69,0.00,,,0.00,Rainwise IP-100,2013-11-26 12:55:00,
2013-11-26 08:00:00,29.0,21.0,30.13,SSW,202,6.0,12.0,70,0.00,,,0.00,Rainwise IP-100,2013-11-26 13:00:00,
2013-11-26 08:05:00,29.0,21.0,30.14,South,180,6.0,12.0,69,0.00,,,0.00,Rainwise IP-100,2013-11-26 13:05:00,
2013-11-26 08:10:00,29.0,21.0,30.14,South,180,9.0,12.0,69,0.00,,,0.00,Rainwise IP-100,2013-11-26 13:10:00,
2013-11-26 08:15:00,29.0,21.0,30.13,SSE,157,9.0,12.0,69,0.00,,,0.00,Rainwise IP-100,2013-11-26 13:15:00,
2013-11-26 08:20:00,30.0,23.0,30.13,SW,225,6.0,12.0,69,0.00,,,0.00,Rainwise IP-100,2013-11-26 13:20:00,
2013-11-26 08:25:00,30.0,23.0,30.14,South,180,5.0,10.0,70,0.00,,,0.00,Rainwise IP-100,2013-11-26 13:25:00,
2013-11-26 08:30:00,30.0,23.0,30.14,South,180,9.0,12.0,69,0.00,,,0.00,Rainwise IP-100,2013-11-26 13:30:00,
2013-11-26 08:35:00,30.0,23.0,30.14,SE,135,6.0,10.0,69,0.00,,,0.00,Rainwise IP-100,2013-11-26 13:35:00,
2013-11-26 08:40:00,30.0,23.0,30.14,SE,135,7.0,10.0,70,0.00,,,0.00,Rainwise IP-100,2013-11-26 13:40:00,
2013-11-26 08:45:00,30.0,23.0,30.14,SSE,157,7.0,12.0,70,0.00,,,0.00,Rainwise IP-100,2013-11-26 13:45:00,
2013-11-26 08:50:00,30.0,23.0,30.14,South,180,6.0,14.0,70,0.00,,,0.00,Rainwise IP-100,2013-11-26 13:50:00,
2013-11-26 08:55:00,30.0,23.0,30.14,South,180,10.0,14.0,71,0.00,,,0.00,Rainwise IP-100,2013-11-26 13:55:00,
2013-11-26 09:00:00,30.0,23.0,30.14,South,180,8.0,10.0,71,0.00,,,0.00,Rainwise IP-100,2013-11-26 14:00:00,
2013-11-26 09:05:00,30.0,23.0,30.14,South,180,10.0,12.0,71,0.00,,,0.00,Rainwise IP-100,2013-11-26 14:05:00,
2013-11-26 09:10:00,30.0,23.0,30.14,SSE,157,7.0,15.0,71,0.00,,,0.00,Rainwise IP-100,2013-11-26 14:10:00,
2013-11-26 09:15:00,30.0,23.0,30.15,South,180,11.0,15.0,71,0.00,,,0.00,Rainwise IP-100,2013-11-26 14:15:00,
2013-11-26 09:20:00,30.0,23.0,30.15,SW,225,7.0,14.0,72,0.00,,,0.00,Rainwise IP-100,2013-11-26 14:20:00,
2013-11-26 09:25:00,30.0,23.0,30.14,SW,225,10.0,13.0,72,0.00,,,0.00,Rainwise IP-100,2013-11-26 14:25:00,
2013-11-26 09:30:00,30.0,23.0,30.14,SSW,202,10.0,13.0,72,0.00,,,0.00,Rainwise IP-100,2013-11-26 14:30:00,
2013-11-26 09:35:00,31.0,23.0,30.14,SSE,157,13.0,15.0,72,0.00,,,0.00,Rainwise IP-100,2013-11-26 14:35:00,
2013-11-26 09:40:00,30.0,23.0,30.14,South,180,12.0,17.0,72,0.00,,,0.00,Rainwise IP-100,2013-11-26 14:40:00,
2013-11-26 09:45:00,31.0,23.0,30.14,SE,135,12.0,18.0,73,0.00,,,0.00,Rainwise IP-100,2013-11-26 14:45:00,
2013-11-26 09:50:00,31.0,24.0,30.14,SSE,157,6.0,16.0,74,0.00,,,0.00,Rainwise IP-100,2013-11-26 14:50:00,
2013-11-26 09:55:00,31.0,23.0,30.14,SSE,157,9.0,15.0,73,0.00,,,0.00,Rainwise IP-100,2013-11-26 14:55:00,
2013-11-26 10:00:00,31.0,23.0,30.14,South,180,9.0,14.0,73,0.00,,,0.00,Rainwise IP-100,2013-11-26 15:00:00,
2013-11-26 10:05:00,31.0,24.0,30.15,SSE,157,5.0,14.0,74,0.00,,,0.00,Rainwise IP-100,2013-11-26 15:05:00,
2013-11-26 10:10:00,31.0,24.0,30.15,South,180,2.0,9.0,74,0.00,,,0.00,Rainwise IP-100,2013-11-26 15:10:00,
2013-11-26 10:15:00,31.0,23.0,30.15,SSE,157,8.0,15.0,73,0.00,,,0.00,Rainwise IP-100,2013-11-26 15:15:00,
2013-11-26 10:20:00,31.0,24.0,30.15,South,180,9.0,12.0,74,0.00,,,0.00,Rainwise IP-100,2013-11-26 15:20:00,
2013-11-26 10:25:00,31.0,23.0,30.14,SE,135,9.0,12.0,73,0.00,,,0.00,Rainwise IP-100,2013-11-26 15:25:00,
2013-11-26 10:30:00,31.0,24.0,30.14,South,180,3.0,14.0,74,0.00,,,0.00,Rainwise IP-100,2013-11-26 15:30:00,
2013-11-26 10:35:00,32.0,24.0,30.13,SE,135,12.0,12.0,73,0.00,,,0.00,Rainwise IP-100,2013-11-26 15:35:00,
2013-11-26 10:40:00,32.0,24.0,30.13,South,180,8.0,15.0,73,0.00,,,0.00,Rainwise IP-100,2013-11-26 15:40:00,
2013-11-26 10:45:00,32.0,24.0,30.12,SE,135,8.0,13.0,73,0.00,,,0.00,Rainwise IP-100,2013-11-26 15:45:00,
2013-11-26 10:50:00,32.0,24.0,30.12,South,180,7.0,14.0,73,0.00,,,0.00,Rainwise IP-100,2013-11-26 15:50:00,
2013-11-26 10:55:00,33.0,26.0,30.12,SSE,157,10.0,12.0,72,0.00,,,0.00,Rainwise IP-100,2013-11-26 15:55:00,
2013-11-26 11:00:00,33.0,24.0,30.12,South,180,7.0,15.0,71,0.00,,,0.00,Rainwise IP-100,2013-11-26 16:00:00,
2013-11-26 11:05:00,33.0,24.0,30.10,SSE,157,8.0,13.0,71,0.00,,,0.00,Rainwise IP-100,2013-11-26 16:05:00,
2013-11-26 11:10:00,33.0,24.0,30.10,SW,225,8.0,11.0,70,0.00,,,0.00,Rainwise IP-100,2013-11-26 16:10:00,
2013-11-26 11:15:00,33.0,24.0,30.10,SE,135,11.0,13.0,70,0.00,,,0.00,Rainwise IP-100,2013-11-26 16:15:00,
2013-11-26 11:20:00,32.0,24.0,30.10,South,180,5.0,16.0,72,0.00,,,0.00,Rainwise IP-100,2013-11-26 16:20:00,
2013-11-26 11:25:00,32.0,24.0,30.10,SSE,157,14.0,15.0,72,0.00,,,0.00,Rainwise IP-100,2013-11-26 16:25:00,
2013-11-26 11:30:00,32.0,24.0,30.10,SSE,157,9.0,16.0,72,0.00,,,0.00,Rainwise IP-100,2013-11-26 16:30:00,
2013-11-26 11:35:00,32.0,24.0,30.11,SE,135,9.0,13.0,73,0.00,,,0.00,Rainwise IP-100,2013-11-26 16:35:00,
2013-11-26 11:40:00,32.0,24.0,30.11,SE,135,10.0,12.0,73,0.00,,,0.00,Rainwise IP-100,2013-11-26 16:40:00,
2013-11-26 11:45:00,32.0,24.0,30.12,South,180,9.0,14.0,73,0.00,,,0.00,Rainwise IP-100,2013-11-26 16:45:00,
2013-11-26 11:50:00,33.0,26.0,30.12,SE,135,9.0,12.0,74,0.00,,,0.00,Rainwise IP-100,2013-11-26 16:50:00,
2013-11-26 11:55:00,33.0,26.0,30.12,SE,135,10.0,11.0,73,0.00,,,0.00,Rainwise IP-100,2013-11-26 16:55:00,
2013-11-26 12:00:00,33.0,26.0,30.12,ESE,112,9.0,13.0,73,0.00,,,0.00,Rainwise IP-100,2013-11-26 17:00:00,
2013-11-26 12:05:00,33.0,26.0,30.12,SSE,157,8.0,12.0,73,0.00,,,0.00,Rainwise IP-100,2013-11-26 17:05:00,
2013-11-26 12:10:00,33.0,26.0,30.12,SE,135,7.0,10.0,74,0.00,,,0.00,Rainwise IP-100,2013-11-26 17:10:00,
2013-11-26 12:15:00,33.0,26.0,30.12,SE,135,8.0,13.0,73,0.00,,,0.00,Rainwise IP-100,2013-11-26 17:15:00,
2013-11-26 12:20:00,33.0,26.0,30.12,South,180,6.0,11.0,73,0.00,,,0.00,Rainwise IP-100,2013-11-26 17:20:00,
2013-11-26 12:25:00,33.0,26.0,30.12,SE,135,7.0,8.0,72,0.00,,,0.00,Rainwise IP-100,2013-11-26 17:25:00,
2013-11-26 12:30:00,33.0,26.0,30.12,SSW,202,6.0,11.0,72,0.00,,,0.00,Rainwise IP-100,2013-11-26 17:30:00,
2013-11-26 12:35:00,34.0,26.0,30.11,South,180,7.0,9.0,72,0.00,,,0.00,Rainwise IP-100,2013-11-26 17:35:00,
2013-11-26 12:40:00,34.0,26.0,30.11,SSE,157,7.0,10.0,72,0.00,,,0.00,Rainwise IP-100,2013-11-26 17:40:00,
2013-11-26 12:45:00,34.0,26.0,30.11,South,180,8.0,10.0,72,0.00,,,0.00,Rainwise IP-100,2013-11-26 17:45:00,
2013-11-26 12:50:00,34.0,28.0,30.11,South,180,5.0,13.0,73,0.00,,,0.00,Rainwise IP-100,2013-11-26 17:50:00,
2013-11-26 12:55:00,34.0,28.0,30.11,SE,135,4.0,8.0,73,0.00,,,0.00,Rainwise IP-100,2013-11-26 17:55:00,
2013-11-26 13:00:00,34.0,26.0,30.11,SE,135,9.0,9.0,72,0.00,,,0.00,Rainwise IP-100,2013-11-26 18:00:00,
2013-11-26 13:05:00,34.0,26.0,30.11,South,180,5.0,9.0,72,0.00,,,0.00,Rainwise IP-100,2013-11-26 18:05:00,
2013-11-26 13:10:00,34.0,26.0,30.11,SE,135,6.0,10.0,72,0.00,,,0.00,Rainwise IP-100,2013-11-26 18:10:00,
2013-11-26 13:15:00,34.0,28.0,30.11,SE,135,7.0,10.0,73,0.00,,,0.00,Rainwise IP-100,2013-11-26 18:15:00,
2013-11-26 13:20:00,34.0,28.0,30.11,SE,135,4.0,10.0,73,0.00,,,0.00,Rainwise IP-100,2013-11-26 18:20:00,
2013-11-26 13:25:00,34.0,28.0,30.11,South,180,9.0,10.0,73,0.00,,,0.00,Rainwise IP-100,2013-11-26 18:25:00,
2013-11-26 13:30:00,34.0,28.0,30.11,SSE,157,6.0,13.0,73,0.00,,,0.00,Rainwise IP-100,2013-11-26 18:30:00,
2013-11-26 13:35:00,34.0,28.0,30.10,SE,135,9.0,12.0,73,0.00,,,0.00,Rainwise IP-100,2013-11-26 18:35:00,
2013-11-26 13:40:00,34.0,28.0,30.10,SSE,157,9.0,13.0,73,0.00,,,0.00,Rainwise IP-100,2013-11-26 18:40:00,
2013-11-26 13:45:00,34.0,28.0,30.12,South,180,4.0,12.0,73,0.00,,,0.00,Rainwise IP-100,2013-11-26 18:45:00,
2013-11-26 13:50:00,34.0,28.0,30.12,SSE,157,10.0,12.0,73,0.00,,,0.00,Rainwise IP-100,2013-11-26 18:50:00,
2013-11-26 13:55:00,34.0,28.0,30.12,South,180,9.0,12.0,74,0.00,,,0.00,Rainwise IP-100,2013-11-26 18:55:00,
2013-11-26 14:00:00,34.0,28.0,30.12,SSE,157,6.0,12.0,74,0.00,,,0.00,Rainwise IP-100,2013-11-26 19:00:00,
2013-11-26 14:05:00,34.0,28.0,30.12,South,180,6.0,10.0,74,0.00,,,0.00,Rainwise IP-100,2013-11-26 19:05:00,
2013-11-26 14:10:00,34.0,28.0,30.12,South,180,8.0,12.0,74,0.00,,,0.00,Rainwise IP-100,2013-11-26 19:10:00,
2013-11-26 14:15:00,34.0,28.0,30.11,SSE,157,8.0,12.0,74,0.00,,,0.00,Rainwise IP-100,2013-11-26 19:15:00,
2013-11-26 14:20:00,34.0,28.0,30.11,South,180,7.0,10.0,74,0.00,,,0.00,Rainwise IP-100,2013-11-26 19:20:00,
2013-11-26 14:25:00,34.0,28.0,30.12,SE,135,1.0,10.0,75,0.00,,,0.00,Rainwise IP-100,2013-11-26 19:25:00,
2013-11-26 14:30:00,34.0,28.0,30.12,SE,135,6.0,11.0,74,0.00,,,0.00,Rainwise IP-100,2013-11-26 19:30:00,
2013-11-26 14:40:00,34.0,28.0,30.11,SSE,157,6.0,12.0,74,0.00,,,0.00,Rainwise IP-100,2013-11-26 19:40:00,
2013-11-26 14:45:00,34.0,28.0,30.11,SSE,157,6.0,11.0,75,0.00,,,0.00,Rainwise IP-100,2013-11-26 19:45:00,
2013-11-26 14:50:00,33.0,26.0,30.11,SSE,157,5.0,9.0,76,0.00,,,0.00,Rainwise IP-100,2013-11-26 19:50:00,
2013-11-26 14:55:00,33.0,26.0,30.11,South,180,7.0,12.0,75,0.00,,,0.00,Rainwise IP-100,2013-11-26 19:55:00,
2013-11-26 15:00:00,33.0,26.0,30.11,South,180,8.0,9.0,75,0.00,,,0.00,Rainwise IP-100,2013-11-26 20:00:00,
2013-11-26 15:05:00,33.0,26.0,30.10,SSW,202,6.0,10.0,75,0.00,,,0.00,Rainwise IP-100,2013-11-26 20:05:00,
2013-11-26 15:10:00,33.0,26.0,30.10,South,180,8.0,11.0,75,0.00,,,0.00,Rainwise IP-100,2013-11-26 20:10:00,
2013-11-26 15:15:00,34.0,28.0,30.10,SW,225,6.0,10.0,75,0.00,,,0.00,Rainwise IP-100,2013-11-26 20:15:00,
2013-11-26 15:20:00,33.0,26.0,30.10,SE,135,6.0,9.0,76,0.00,,,0.00,Rainwise IP-100,2013-11-26 20:20:00,
2013-11-26 15:25:00,33.0,26.0,30.10,SSW,202,5.0,16.0,76,0.00,,,0.00,Rainwise IP-100,2013-11-26 20:25:00,
2013-11-26 15:30:00,33.0,26.0,30.10,South,180,7.0,11.0,76,0.00,,,0.00,Rainwise IP-100,2013-11-26 20:30:00,
2013-11-26 15:35:00,33.0,26.0,30.11,SE,135,7.0,15.0,76,0.00,,,0.00,Rainwise IP-100,2013-11-26 20:35:00,
2013-11-26 15:40:00,33.0,26.0,30.11,South,180,9.0,12.0,76,0.00,,,0.00,Rainwise IP-100,2013-11-26 20:40:00,
2013-11-26 15:45:00,33.0,28.0,30.11,South,180,10.0,11.0,77,0.00,,,0.00,Rainwise IP-100,2013-11-26 20:45:00,
2013-11-26 15:50:00,33.0,28.0,30.11,SSW,202,6.0,13.0,77,0.00,,,0.00,Rainwise IP-100,2013-11-26 20:50:00,
2013-11-26 15:55:00,33.0,28.0,30.11,South,180,7.0,13.0,79,0.00,,,0.00,Rainwise IP-100,2013-11-26 20:55:00,
2013-11-26 16:00:00,33.0,29.0,30.11,SE,135,7.0,13.0,82,0.00,,,0.00,Rainwise IP-100,2013-11-26 21:00:00,
2013-11-26 16:05:00,32.0,28.0,30.10,South,180,6.0,11.0,84,0.00,,,0.00,Rainwise IP-100,2013-11-26 21:05:00,
2013-11-26 16:10:00,32.0,28.0,30.10,South,180,6.0,13.0,85,0.00,,,0.00,Rainwise IP-100,2013-11-26 21:10:00,
2013-11-26 16:15:00,32.0,28.0,30.11,South,180,7.0,12.0,86,0.00,,,0.00,Rainwise IP-100,2013-11-26 21:15:00,
2013-11-26 16:20:00,32.0,29.0,30.11,South,180,4.0,12.0,89,0.00,,,0.00,Rainwise IP-100,2013-11-26 21:20:00,
2013-11-26 16:25:00,31.0,28.0,30.11,South,180,8.0,12.0,89,0.00,,,0.00,Rainwise IP-100,2013-11-26 21:25:00,
2013-11-26 16:30:00,31.0,28.0,30.11,SE,135,9.0,10.0,90,0.00,,,0.00,Rainwise IP-100,2013-11-26 21:30:00,
2013-11-26 16:35:00,31.0,28.0,30.12,South,180,7.0,10.0,91,0.00,,,0.00,Rainwise IP-100,2013-11-26 21:35:00,
2013-11-26 16:40:00,31.0,29.0,30.12,ESE,112,6.0,10.0,93,0.00,,,0.00,Rainwise IP-100,2013-11-26 21:40:00,
2013-11-26 16:45:00,31.0,29.0,30.11,SE,135,5.0,9.0,95,0.00,,,0.00,Rainwise IP-100,2013-11-26 21:45:00,
2013-11-26 16:50:00,31.0,29.0,30.11,SSE,157,4.0,12.0,95,0.00,,,0.00,Rainwise IP-100,2013-11-26 21:50:00,
2013-11-26 16:55:00,30.0,29.0,30.11,SSE,157,5.0,9.0,95,0.00,,,0.00,Rainwise IP-100,2013-11-26 21:55:00,
2013-11-26 17:00:00,30.0,29.0,30.11,SE,135,6.0,10.0,95,0.00,,,0.00,Rainwise IP-100,2013-11-26 22:00:00,
2013-11-26 17:05:00,30.0,29.0,30.11,SSE,157,6.0,13.0,95,0.00,,,0.00,Rainwise IP-100,2013-11-26 22:05:00,
2013-11-26 17:10:00,30.0,29.0,30.11,South,180,9.0,15.0,95,0.00,,,0.00,Rainwise IP-100,2013-11-26 22:10:00,
2013-11-26 17:15:00,30.0,29.0,30.11,SSE,157,4.0,11.0,95,0.00,,,0.00,Rainwise IP-100,2013-11-26 22:15:00,
2013-11-26 17:20:00,30.0,29.0,30.11,SE,135,7.0,10.0,95,0.00,,,0.00,Rainwise IP-100,2013-11-26 22:20:00,
2013-11-26 17:25:00,30.0,29.0,30.10,SSW,202,8.0,16.0,95,0.00,,,0.00,Rainwise IP-100,2013-11-26 22:25:00,
2013-11-26 17:30:00,30.0,29.0,30.10,South,180,4.0,17.0,95,0.00,,,0.00,Rainwise IP-100,2013-11-26 22:30:00,
2013-11-26 17:35:00,30.0,29.0,30.10,South,180,8.0,12.0,95,0.00,,,0.00,Rainwise IP-100,2013-11-26 22:35:00,
2013-11-26 17:40:00,30.0,29.0,30.10,South,180,5.0,12.0,95,0.00,,,0.00,Rainwise IP-100,2013-11-26 22:40:00,
2013-11-26 17:45:00,30.0,29.0,30.10,SSW,202,6.0,10.0,95,0.00,,,0.00,Rainwise IP-100,2013-11-26 22:45:00,
2013-11-26 17:50:00,30.0,29.0,30.10,South,180,7.0,13.0,95,0.00,,,0.00,Rainwise IP-100,2013-11-26 22:50:00,
2013-11-26 17:55:00,30.0,29.0,30.10,South,180,6.0,9.0,95,0.00,,,0.00,Rainwise IP-100,2013-11-26 22:55:00,
2013-11-26 18:00:00,30.0,29.0,30.10,SSE,157,7.0,10.0,95,0.00,,,0.00,Rainwise IP-100,2013-11-26 23:00:00,
2013-11-26 18:05:00,30.0,29.0,30.10,SSW,202,3.0,10.0,95,0.00,,,0.00,Rainwise IP-100,2013-11-26 23:05:00,
2013-11-26 18:10:00,30.0,29.0,30.10,SE,135,6.0,9.0,95,0.00,,,0.00,Rainwise IP-100,2013-11-26 23:10:00,
2013-11-26 18:15:00,30.0,29.0,30.10,SW,225,3.0,9.0,95,0.00,,,0.00,Rainwise IP-100,2013-11-26 23:15:00,
2013-11-26 18:20:00,30.0,29.0,30.10,SSE,157,6.0,10.0,95,0.00,,,0.00,Rainwise IP-100,2013-11-26 23:20:00,
2013-11-26 18:25:00,30.0,29.0,30.10,SSE,157,3.0,9.0,95,0.00,,,0.00,Rainwise IP-100,2013-11-26 23:25:00,
2013-11-26 18:30:00,30.0,29.0,30.10,SSE,157,7.0,10.0,95,0.00,,,0.00,Rainwise IP-100,2013-11-26 23:30:00,
2013-11-26 18:35:00,30.0,29.0,30.10,SSW,202,3.0,13.0,95,0.00,,,0.00,Rainwise IP-100,2013-11-26 23:35:00,
2013-11-26 18:40:00,30.0,29.0,30.10,SSE,157,6.0,9.0,95,0.00,,,0.00,Rainwise IP-100,2013-11-26 23:40:00,
2013-11-26 18:45:00,30.0,29.0,30.09,SSE,157,3.0,9.0,95,0.00,,,0.00,Rainwise IP-100,2013-11-26 23:45:00,
2013-11-26 18:50:00,29.0,28.0,30.09,SE,135,6.0,9.0,94,0.00,,,0.00,Rainwise IP-100,2013-11-26 23:50:00,
2013-11-26 18:53:00,30.0,29.0,30.09,SSW,202,6.0,9.0,95,0.00,,,0.00,Rainwise IP-100,2013-11-26 23:53:00,
2013-11-26 18:58:00,29.0,28.0,30.09,SW,225,3.0,9.0,94,0.00,,,0.00,Rainwise IP-100,2013-11-26 23:58:00,
2013-11-26 19:03:00,29.0,28.0,30.10,SSW,202,7.0,9.0,94,0.00,,,0.00,Rainwise IP-100,2013-11-27 00:03:00,
2013-11-26 19:08:00,29.0,28.0,30.10,SSW,202,5.0,7.0,94,0.00,,,0.00,Rainwise IP-100,2013-11-27 00:08:00,
2013-11-26 19:13:00,29.0,28.0,30.10,West,270,3.0,7.0,94,0.00,,,0.00,Rainwise IP-100,2013-11-27 00:13:00,
2013-11-26 19:18:00,29.0,28.0,30.10,WSW,247,6.0,8.0,94,0.00,,,0.00,Rainwise IP-100,2013-11-27 00:18:00,
2013-11-26 19:23:00,29.0,28.0,30.10,South,180,7.0,8.0,94,0.00,,,0.00,Rainwise IP-100,2013-11-27 00:23:00,
2013-11-26 19:28:00,29.0,28.0,30.10,SSW,202,5.0,10.0,94,0.00,,,0.00,Rainwise IP-100,2013-11-27 00:28:00,
2013-11-26 19:33:00,29.0,28.0,30.09,SSE,157,7.0,10.0,94,0.00,,,0.00,Rainwise IP-100,2013-11-27 00:33:00,
2013-11-26 19:38:00,29.0,28.0,30.09,SSE,157,6.0,10.0,94,0.00,,,0.00,Rainwise IP-100,2013-11-27 00:38:00,
2013-11-26 19:43:00,29.0,28.0,30.08,SSW,202,0.0,9.0,94,0.00,,,0.00,Rainwise IP-100,2013-11-27 00:43:00,
2013-11-26 19:48:00,29.0,28.0,30.08,South,180,9.0,11.0,94,0.00,,,0.00,Rainwise IP-100,2013-11-27 00:48:00,
2013-11-26 19:53:00,29.0,28.0,30.08,South,180,4.0,12.0,94,0.00,,,0.00,Rainwise IP-100,2013-11-27 00:53:00,
2013-11-26 19:58:00,29.0,28.0,30.08,SSW,202,3.0,13.0,94,0.00,,,0.00,Rainwise IP-100,2013-11-27 00:58:00,
2013-11-26 20:03:00,29.0,28.0,30.07,SSW,202,9.0,11.0,94,0.00,,,0.00,Rainwise IP-100,2013-11-27 01:03:00,
2013-11-26 20:08:00,29.0,28.0,30.07,South,180,9.0,10.0,94,0.00,,,0.00,Rainwise IP-100,2013-11-27 01:08:00,
2013-11-26 20:13:00,29.0,28.0,30.06,South,180,5.0,12.0,94,0.00,,,0.00,Rainwise IP-100,2013-11-27 01:13:00,
2013-11-26 20:18:00,29.0,28.0,30.06,SSW,202,6.0,11.0,94,0.00,,,0.00,Rainwise IP-100,2013-11-27 01:18:00,
2013-11-26 20:23:00,29.0,28.0,30.06,SW,225,5.0,11.0,94,0.00,,,0.00,Rainwise IP-100,2013-11-27 01:23:00,
2013-11-26 20:28:00,29.0,28.0,30.06,South,180,5.0,10.0,94,0.00,,,0.00,Rainwise IP-100,2013-11-27 01:28:00,
2013-11-26 20:33:00,29.0,28.0,30.05,SW,225,2.0,10.0,94,0.00,,,0.00,Rainwise IP-100,2013-11-27 01:33:00,
2013-11-26 20:38:00,29.0,28.0,30.05,SW,225,7.0,11.0,94,0.00,,,0.00,Rainwise IP-100,2013-11-27 01:38:00,
2013-11-26 20:43:00,29.0,28.0,30.05,WSW,247,6.0,12.0,94,0.00,,,0.00,Rainwise IP-100,2013-11-27 01:43:00,
2013-11-26 20:48:00,29.0,28.0,30.05,SW,225,6.0,9.0,94,0.00,,,0.00,Rainwise IP-100,2013-11-27 01:48:00,
2013-11-26 20:53:00,29.0,28.0,30.04,SW,225,4.0,10.0,94,0.00,,,0.00,Rainwise IP-100,2013-11-27 01:53:00,
2013-11-26 20:58:00,29.0,28.0,30.04,South,180,3.0,9.0,94,0.00,,,0.00,Rainwise IP-100,2013-11-27 01:58:00,
2013-11-26 21:03:00,29.0,28.0,30.04,SW,225,10.0,13.0,94,0.00,,,0.00,Rainwise IP-100,2013-11-27 02:03:00,
2013-11-26 21:08:00,29.0,28.0,30.04,South,180,6.0,11.0,94,0.00,,,0.00,Rainwise IP-100,2013-11-27 02:08:00,
2013-11-26 21:13:00,29.0,28.0,30.04,SW,225,10.0,10.0,94,0.00,,,0.00,Rainwise IP-100,2013-11-27 02:13:00,
2013-11-26 21:18:00,29.0,28.0,30.04,SE,135,2.0,12.0,94,0.00,,,0.00,Rainwise IP-100,2013-11-27 02:18:00,
2013-11-26 21:23:00,29.0,28.0,30.02,SW,225,6.0,10.0,94,0.00,,,0.00,Rainwise IP-100,2013-11-27 02:23:00,
2013-11-26 21:28:00,29.0,28.0,30.02,SSW,202,5.0,9.0,94,0.00,,,0.00,Rainwise IP-100,2013-11-27 02:28:00,
2013-11-26 21:33:00,29.0,28.0,30.02,SW,225,6.0,11.0,94,0.00,,,0.00,Rainwise IP-100,2013-11-27 02:33:00,
2013-11-26 21:38:00,29.0,28.0,30.02,SW,225,5.0,9.0,94,0.00,,,0.00,Rainwise IP-100,2013-11-27 02:38:00,
2013-11-26 21:43:00,29.0,28.0,30.01,WSW,247,8.0,10.0,94,0.00,,,0.00,Rainwise IP-100,2013-11-27 02:43:00,
2013-11-26 21:48:00,29.0,28.0,30.01,SW,225,6.0,10.0,94,0.00,,,0.00,Rainwise IP-100,2013-11-27 02:48:00,
2013-11-26 21:53:00,29.0,28.0,30.01,South,180,8.0,9.0,94,0.00,,,0.00,Rainwise IP-100,2013-11-27 02:53:00,
2013-11-26 21:58:00,29.0,28.0,30.01,WSW,247,6.0,10.0,94,0.00,,,0.00,Rainwise IP-100,2013-11-27 02:58:00,
2013-11-26 22:03:00,29.0,28.0,30.00,SSE,157,7.0,11.0,94,0.00,,,0.00,Rainwise IP-100,2013-11-27 03:03:00,
2013-11-26 22:08:00,29.0,28.0,30.00,West,270,7.0,14.0,94,0.00,,,0.00,Rainwise IP-100,2013-11-27 03:08:00,
2013-11-26 22:13:00,29.0,28.0,30.00,WSW,247,6.0,14.0,94,0.00,,,0.00,Rainwise IP-100,2013-11-27 03:13:00,
2013-11-26 22:18:00,29.0,28.0,30.00,SW,225,5.0,11.0,94,0.00,,,0.00,Rainwise IP-100,2013-11-27 03:18:00,
2013-11-26 22:23:00,29.0,28.0,29.99,SSW,202,10.0,13.0,94,0.00,,,0.00,Rainwise IP-100,2013-11-27 03:23:00,
2013-11-26 22:28:00,29.0,28.0,29.99,SE,135,6.0,10.0,94,0.00,,,0.00,Rainwise IP-100,2013-11-27 03:28:00,
2013-11-26 22:33:00,29.0,28.0,29.98,SW,225,2.0,10.0,94,0.00,,,0.00,Rainwise IP-100,2013-11-27 03:33:00,
2013-11-26 22:38:00,29.0,28.0,29.98,SW,225,6.0,12.0,94,0.00,,,0.00,Rainwise IP-100,2013-11-27 03:38:00,
2013-11-26 22:43:00,29.0,28.0,29.98,SSW,202,9.0,11.0,94,0.00,,,0.00,Rainwise IP-100,2013-11-27 03:43:00,
2013-11-26 22:48:00,29.0,28.0,29.98,SSW,202,3.0,10.0,94,0.00,,,0.00,Rainwise IP-100,2013-11-27 03:48:00,
2013-11-26 22:53:00,30.0,29.0,29.97,South,180,9.0,13.0,95,0.00,,,0.00,Rainwise IP-100,2013-11-27 03:53:00,
2013-11-26 22:58:00,30.0,29.0,29.97,WSW,247,6.0,13.0,95,0.00,,,0.00,Rainwise IP-100,2013-11-27 03:58:00,
2013-11-26 23:03:00,30.0,29.0,29.97,SSW,202,7.0,12.0,95,0.00,,,0.00,Rainwise IP-100,2013-11-27 04:03:00,
2013-11-26 23:08:00,30.0,29.0,29.97,South,180,3.0,12.0,95,0.00,,,0.00,Rainwise IP-100,2013-11-27 04:08:00,
2013-11-26 23:13:00,30.0,29.0,29.96,SW,225,2.0,14.0,95,0.00,,,0.00,Rainwise IP-100,2013-11-27 04:13:00,
2013-11-26 23:18:00,30.0,29.0,29.96,SE,135,6.0,13.0,95,0.00,,,0.00,Rainwise IP-100,2013-11-27 04:18:00,
2013-11-26 23:23:00,30.0,29.0,29.95,SSE,157,5.0,11.0,95,0.00,,,0.00,Rainwise IP-100,2013-11-27 04:23:00,
2013-11-26 23:28:00,30.0,29.0,29.95,SW,225,7.0,14.0,95,0.00,,,0.00,Rainwise IP-100,2013-11-27 04:28:00,
2013-11-26 23:33:00,30.0,29.0,29.94,SW,225,7.0,12.0,95,0.00,,,0.00,Rainwise IP-100,2013-11-27 04:33:00,
2013-11-26 23:38:00,30.0,29.0,29.94,SW,225,2.0,14.0,95,0.00,,,0.00,Rainwise IP-100,2013-11-27 04:38:00,
2013-11-26 23:43:00,30.0,29.0,29.93,South,180,7.0,11.0,95,0.00,,,0.00,Rainwise IP-100,2013-11-27 04:43:00,
2013-11-26 23:48:00,30.0,29.0,29.93,SSW,202,14.0,14.0,95,0.00,,,0.00,Rainwise IP-100,2013-11-27 04:48:00,
2013-11-26 23:53:00,30.0,29.0,29.94,South,180,11.0,15.0,95,0.00,,,0.00,Rainwise IP-100,2013-11-27 04:53:00,
2013-11-26 23:58:00,30.0,29.0,29.94,SSW,202,3.0,12.0,95,0.00,,,0.00,Rainwise IP-100,2013-11-27 04:58:00,